Regional Weather Roundup
Issued by NWS

Home | Current Version | Previous Version | Graphics & Text | Print | Product List | Glossary On
Versions: 1 2 3 4 5 6 7 8 9 10 11 12 13 14 15 16 17 18 19 20 21 22 23 24 25 26 27 28 29 30 31 32 33 34 35 36 37 38 39 40 41 42 43 44 45 46 47 48 49 50
671
ASUS45 KTFX 252110
RWRMT
MONTANA REGIONAL WEATHER ROUNDUP
NATIONAL WEATHER SERVICE GREAT FALLS MT
300 PM MDT THU MAY 25 2017

NOTE: "FAIR" INDICATES FEW OR NO CLOUDS BELOW 12000 FEET WITH NO
SIGNIFICANT WEATHER AND/OR OBSTRUCTIONS TO VISIBILITY.

MTZ001>007-043-252200-
WEST OF THE DIVIDE

CITY           SKY/WX    TMP DP  RH WIND       PRES   REMARKS
KALISPELL      CLOUDY    61  35  37 NE9       29.79S
MISSOULA       PTSUNNY   63  33  32 CALM      29.79F
BUTTE          CLOUDY    48  25  40 VRB3      29.84S
MULLAN PASS    CLOUDY    45  32  60 CALM      29.85S
ANACONDA         N/A     52  27  37 W3        29.83F
EUREKA           N/A     64  34  32 CALM      29.77F
HAMILTON         N/A     61  32  33 N3        29.80S
PLAINS           N/A     64  32  30 CALM      29.81
RONAN            N/A     63  31  30 CALM      29.86S
$$

MTZ008-052>055-252200-
SOUTHWEST MONTANA

CITY           SKY/WX    TMP DP  RH WIND       PRES   REMARKS
BOZEMAN        CLOUDY    50  37  61 CALM      29.84S
DILLON         SUNNY     57  31  37 NE10      29.81S
W YELLOWSTONE  CLOUDY    48  25  40 N12G18    29.83S
ENNIS          PTSUNNY   50  28  43 VRB5      29.88S
$$

MTZ009-010-012-014-046-048-049-054-252200-
EAST SLOPES AND CENTRAL MONTANA

CITY           SKY/WX    TMP DP  RH WIND       PRES   REMARKS
CUT BANK       PTSUNNY   56  34  43 N28G36    29.77R
GREAT FALLS    MOSUNNY   61  31  32 NW23G31   29.77R
MALMSTROM AFB  PTSUNNY   59  30  32 NW23G30   29.77R
HELENA         CLOUDY    58  31  35 NE17      29.80R
AUGUSTA        PTSUNNY   54  30  39 N24G33    29.80R
BOWMANS CRNR   PTSUNNY   52  30  43 N16       29.79R
CHOTEAU          N/A     59  32  36 N24G35    29.81R
CONRAD           N/A     58  47  66 NW18      29.81R
FAIRFIELD      PTSUNNY   57  29  34 N24G33    29.77R
POWER            N/A     56  31  38 N22G39    29.75S
RAYNESFORD     PTSUNNY   54  31  41 NW22G30   29.77R
ULM              N/A     57  32  39 NW20      29.79R
$$

MTZ011-013-016-021-045-047-050-051-252200-
NORTH CENTRAL MONTANA

CITY           SKY/WX    TMP DP  RH WIND       PRES   REMARKS
HAVRE          CLOUDY    58  37  45 N28G40    29.65R
LEWISTOWN      CLOUDY    49  35  58 NW16G32   29.73R
N BAR RANCH    CLOUDY    48  36  61 NW23G32   29.72R
CHINOOK          N/A     54  39  58 NW26G35   29.64R
DENTON         PTSUNNY   52  38  58 NW29G37   29.69R
FORT BENTON      N/A     59  32  36 CALM        N/A
GEYSER         PTSUNNY   53  34  48 NW24G31   29.74R
STANFORD       PTSUNNY   54  33  44 NW28G39   29.74R
WINIFRED       PTSUNNY   49  41  73 NW22      29.71R
$$

MTZ017>020-022>027-061-062-252200-
NORTHEAST MONTANA

CITY           SKY/WX    TMP DP  RH WIND       PRES   REMARKS
GLASGOW        CLOUDY    59  44  57 NW24G35   29.50R
JORDAN           N/A     58  40  51 W21G38    29.57R
SIDNEY         CLOUDY    59  43  55 W22G29    29.47R
WOLF POINT     CLOUDY    62  42  47 W29G43    29.46R
MALTA          CLOUDY    57  41  54 NW30G40   29.56R
PLENTYWOOD       N/A     57  39  51 W21G28    29.38R
POPLAR           N/A     61  39  44 W29G41    29.44R
SCOBEY           N/A     58  34  40 W23       29.45
$$

MTZ028>42-056>058-252200-
SOUTHCENTRAL AND SOUTHEAST MONTANA

CITY           SKY/WX    TMP DP  RH WIND       PRES   REMARKS
BAKER          CLOUDY    55  41  59 W20G26    29.56R
BILLINGS       CLOUDY    61  32  33 NW22G32   29.71R
LIVINGSTON     CLOUDY    50  34  54 NW13      29.81R
MILES CITY     CLOUDY    54  43  66 W23G32    29.60R
BIG TIMBER     PTSUNNY   48  36  61 W25G38    29.81R
EKALAKA          N/A     54  39  56 W15       29.62
FORSYTH          N/A     54  39  58 W18G30    29.63R
LAUREL           N/A     59  32  36 W15       29.74R
ROUNDUP          N/A     55  33  43 W24       29.65R
$$

REGIONAL REPORTS...DAKOTAS

CITY           SKY/WX    TMP DP  RH WIND       PRES   REMARKS
WILLISTON      CLOUDY    59  44  57 W18G25    29.42R
MINOT          PTSUNNY   69  43  38 SW17      29.39R
DICKINSON      PTSUNNY   63  39  41 W26G35    29.48R
BEACH          CLOUDY    57  41  54 W20G28    29.55R
CROSBY         CLOUDY    61  46  59 W23G31    29.36
TIOGA          CLOUDY    55  52  88 SW17G25   29.41R
WATFORD CITY   CLOUDY    59  45  58 W17G26    29.44
BISMARCK       MOSUNNY   76  38  25 W20G25    29.44R
GRAND FORKS    CLOUDY    68  48  48 S20G26    29.48S
FARGO          CLOUDY    67  49  52 S24G35    29.49S
BUFFALO SD       N/A     63  38  39 W32G38    29.50R
RAPID CITY     CLOUDY    66  34  30 N7        29.57S
$$

REGIONAL REPORTS...WYOMING/IDAHO/WASHINGTON

CITY           SKY/WX    TMP DP  RH WIND       PRES   REMARKS
GILLETTE       MOSUNNY   59  41  51 NW21G32   29.67R
SHERIDAN       CLOUDY    59  38  45 NW26G35   29.70R
BUFFALO WY     CLOUDY    52  36  54 NW24G39   29.71R
CODY           CLOUDY    57  31  37 N13       29.76R
YELLOWSTONE LA   N/A     42  22  44 W3        29.86R
IDAHO FALLS    MOSUNNY   61  27  27 S10       29.78S
SALMON         PTSUNNY   59  30  33 N3        29.74S
BOISE            N/A     64  31  28 VRB6      29.73F
SPOKANE        PTSUNNY   60  37  42 CALM      29.85S
$$

REGIONAL REPORTS...ALBERTA

CITY           SKY/WX    TMP DP  RH WIND       PRES   REMARKS
EDMONTON       PTSUNNY   63  37  39 N17G28    29.70S
CALGARY        PTSUNNY   55  37  50 NW28G35   29.79R
LETHBRIDGE     PTSUNNY   61  37  41 NW21G30   29.75S
MEDICINE HAT   PTSUNNY   57  36  44 NW28G37   29.64R
WATERTON GATE    N/A     52  36  54 S6          N/A
$$

REGIONAL REPORTS...SASKATCHEWAN

CITY           SKY/WX    TMP DP  RH WIND       PRES   REMARKS
SWIFT CURRENT  LGT RAIN  52  43  71 NW32G39   29.42R
REGINA         CLOUDY    52  43  71 W17G25    29.30R
SASKATOON      LGT RAIN  52  45  76 W10       29.38R
CYPRESS HILLS    N/A     39  37  93 NW15G29     N/A  WCI  31
VAL MARIE        N/A     52  43  71 NW20G28     N/A
ROCKGLEN         N/A     55  37  50 NW18G31     N/A
ASSINIBOIA       N/A     61  37  41 N25G31      N/A
$$




USA.gov is the U.S. government's official web portal to all federal, state and local government web resources and services.